[[{"header":{"parameterUnit":"m.s-1","parameterCategory":1,"la1":30.2991,"la2":30.254,"lo1":-89.0895,"lo2":-89.0444,"dy":0.0017,"dx":0.0017,"nx":28,"ny":28,"refTime":"2023-08-10T09:00:00:Z","depth":0,"parameterNumber":2,"parameterNumberName":"U-component_of_WINDS"},"data":[0,0,0,0,0,0,0,0,0,0,0,0,0,0,0,0,0,0,0,0,0,0,0,0,0,0,0,0,0,0,0,0,0,0,0,0,0,0,0,0,0,0,0,0,0,0,0,0,0,0,0,0,0,0,0,0,0,0,3.6506,3.6506,0,3.6535,3.6536,3.6536,3.6507,3.6506,3.6505,3.6503,3.6538,3.6539,3.6541,0,0,0,0,0,0,0,0,0,0,0,0,0,3.6428,3.6429,3.6506,3.6506,3.6507,3.6535,3.6536,3.6536,3.6507,3.6506,3.6504,3.6503,3.6537,3.6539,3.6542,0,0,0,0,0,0,0,0,0,0,0,0,0,3.646,3.643,3.6506,3.6495,3.6495,3.6535,3.6536,3.6536,3.6507,3.6506,3.6504,3.6502,3.6536,3.6539,3.6542,3.6595,0,0,3.6551,3.6552,0,0,0,0,0,0,0,0,3.6458,3.6463,3.6497,3.6496,3.6496,3.6515,3.6521,3.6556,3.6508,3.6503,3.6503,3.6501,3.6532,3.6535,3.6545,3.6597,3.6598,3.6551,3.6553,3.6554,3.6555,0,0,0,0,0,0,0,3.6456,3.6462,3.6518,3.6497,3.6496,3.6491,3.6493,3.6527,3.6527,3.6503,3.6501,3.6505,3.6531,3.6542,3.6545,3.6599,3.6551,3.6554,3.6556,3.6557,3.6696,3.6698,0,0,0,0,0,0,3.6455,3.646,3.6517,3.6518,3.6472,3.6493,3.6496,3.6511,3.6526,3.6527,3.6506,3.6503,3.6538,3.6542,3.6546,3.6609,3.6554,3.6557,3.6559,3.6694,3.6697,3.6699,0,0,0,0,0,0,3.6453,3.646,3.6515,3.6489,3.6495,3.6496,3.6513,3.6512,3.6523,3.6529,3.6529,3.6517,3.6536,3.6542,3.6583,3.661,3.6559,3.6561,3.6692,3.6695,3.6698,3.6735,0,0,0,0,0,0,3.6451,3.6459,3.6479,3.6489,3.6497,3.6551,3.6515,3.6514,3.6528,3.6524,3.6538,3.6539,3.6535,3.6579,3.6586,3.6613,3.6564,3.669,3.6693,3.6697,3.6732,3.6739,3.6746,0,0,0,0,0,3.6448,3.6489,3.648,3.6487,3.6521,3.6552,3.6557,3.655,3.653,3.655,3.6554,3.6539,3.6606,3.6583,3.6591,3.6619,3.6688,3.6692,3.6696,3.6729,3.6738,3.6745,0,0,0,0,0,0,3.6483,3.649,3.648,3.6525,3.6538,3.6547,3.6572,3.656,3.658,3.6576,3.6568,3.6572,3.6615,3.6622,3.6596,3.6672,3.6644,3.665,3.6666,3.6674,3.6681,3.6678,3.6566,0,0,0,0,0,3.6495,3.6519,3.6525,3.6564,3.6571,3.6571,3.6584,3.6578,3.6592,3.6597,3.6604,3.6619,3.6643,3.6659,3.6682,3.6733,3.6736,3.6757,3.6764,3.6769,3.6774,3.6801,3.6811,3.6713,3.6713,3.6713,0,0,3.6522,3.6529,3.6545,3.6572,3.6581,3.6606,3.6575,3.6604,3.6623,3.6602,3.664,3.6646,3.6662,3.6708,3.6729,3.6715,3.6802,3.6775,3.6779,3.6781,3.6807,3.6816,3.6824,3.6716,3.6715,3.6715,0,0,3.6584,3.6592,3.6625,3.6635,3.6649,3.6648,3.6656,3.6667,3.667,3.6708,3.6692,3.6716,3.6758,3.677,3.6782,3.6849,3.6836,3.6857,3.6892,3.6919,3.6927,3.6933,3.6956,3.6965,3.6862,3.6862,3.6862,0,3.6615,3.6652,3.6644,3.6673,3.6686,3.6667,3.6701,3.6712,3.6733,3.6742,3.6726,3.6779,3.6788,3.6836,3.6853,3.6863,3.6872,3.6854,3.6926,3.6933,3.6939,3.6961,3.697,3.6864,3.6864,3.6864,3.6864,0,3.669,3.6716,3.6742,3.6761,3.6777,3.6809,3.6806,3.6823,3.6816,3.6818,3.6857,3.6868,3.6893,3.6904,3.6898,3.6952,3.6943,3.6927,3.6898,3.6951,3.6971,3.698,3.6868,3.6867,3.6866,3.6865,0,0,3.6773,3.6788,3.6797,3.6806,3.6821,3.6841,3.6873,3.6895,3.691,3.6926,3.6952,3.6988,3.6973,3.6987,3.6982,3.7006,3.7057,3.6987,3.6987,3.6999,3.7116,3.7127,3.7137,3.7049,3.7051,3.7052,3.7115,0,3.6834,3.6887,3.6881,3.6932,3.6956,3.6939,3.6967,3.6979,3.6982,3.7003,3.7007,3.7032,3.7011,3.7019,3.7042,3.7046,3.7081,3.7042,3.7074,3.7075,3.7069,3.7148,3.716,3.7218,3.7123,3.7124,3.7125,0,3.6912,3.6929,3.6982,3.6993,3.7003,3.7028,3.7048,3.7069,3.7083,3.7083,3.7098,3.709,3.7122,3.7094,3.7139,3.7113,3.7126,3.7131,3.7133,3.7134,3.7102,3.7151,3.7237,3.7245,3.7138,3.7137,3.7136,0,3.6966,3.7003,3.7039,3.7047,3.7061,3.7079,3.7086,3.7098,3.7112,3.7131,3.714,3.7163,3.7175,3.7193,3.7191,3.7171,3.7237,3.7209,3.7238,3.7238,3.7252,3.7251,3.734,3.7263,3.7262,3.7262,3.7262,0,3.7034,3.7067,3.7063,3.7086,3.7122,3.7116,3.7153,3.7158,3.7169,3.7193,3.7181,3.7203,3.72,3.7223,3.7222,3.7259,3.7266,3.7267,3.7266,3.7267,3.7267,3.7275,3.727,3.7265,3.7264,3.7264,3.7263,0,3.71,3.7099,3.7137,3.7147,3.715,3.7177,3.7186,3.7207,3.7209,3.7239,3.7246,3.7249,3.7275,3.7276,3.7307,3.7306,3.7351,3.7346,3.7346,3.7344,3.7373,3.737,3.7469,3.7482,3.7398,3.7399,3.7399,0,3.7142,3.7167,3.718,3.7194,3.7201,3.7225,3.7239,3.7235,3.725,3.7268,3.7288,3.7313,3.7332,3.7376,3.7382,3.7405,3.74,3.7433,3.7404,3.7404,3.7399,3.7397,3.7399,3.7439,3.744,3.744,3.7441,0,3.7218,3.7216,3.7236,3.7257,3.7274,3.729,3.7304,3.7317,3.7315,3.7333,3.7359,3.7374,3.7405,3.743,3.7453,3.7461,3.7451,3.7451,3.7458,3.7459,3.7457,3.7457,3.736,3.7448,3.7447,3.7447,3.7446,3.7446,3.7273,3.7294,3.7305,3.7329,3.7339,3.7353,3.7374,3.7378,3.7399,3.7423,3.742,3.7449,3.7464,3.7493,3.7503,3.7527,3.7515,3.7527,3.7529,3.7532,3.7534,3.7455,3.7531,3.7531,3.7531,3.753,3.753,0,3.7347,3.7353,3.7375,3.7395,3.7414,3.7402,3.7418,3.7434,3.7459,3.7473,3.7493,3.7523,3.7548,3.7555,3.7579,3.7597,3.7593,3.7603,3.7601,3.7603,3.7544,3.7534,3.7606,3.7606,3.7606,3.7606,3.7606,3.7606,3.7387,3.7422,3.7422,3.7462,3.7469,3.7496,3.7506,3.752,3.7531,3.7565,3.7584,3.7589,3.7601,3.7625,3.7648,3.7649,3.7658,3.7671,3.767,3.7615,3.7607,3.76,3.759,3.7673,3.7673,3.7727,3.7727,3.7728]},{"header":{"parameterUnit":"m.s-1","parameterCategory":1,"la1":30.2991,"la2":30.254,"lo1":-89.0895,"lo2":-89.0444,"dy":0.0017,"dx":0.0017,"nx":28,"ny":28,"refTime":"2023-08-10T09:00:00:Z","depth":0,"parameterNumber":3,"parameterNumberName":"V-component_of_WINDS"},"data":[0,0,0,0,0,0,0,0,0,0,0,0,0,0,0,0,0,0,0,0,0,0,0,0,0,0,0,0,0,0,0,0,0,0,0,0,0,0,0,0,0,0,0,0,0,0,0,0,0,0,0,0,0,0,0,0,0,0,2.5545,2.5546,0,2.5658,2.5659,2.566,2.5708,2.5708,2.5708,2.5708,2.5819,2.5822,2.5825,0,0,0,0,0,0,0,0,0,0,0,0,0,2.5364,2.5367,2.5544,2.5546,2.5547,2.5658,2.5659,2.5661,2.5708,2.5708,2.5708,2.5708,2.5818,2.5822,2.5826,0,0,0,0,0,0,0,0,0,0,0,0,0,2.5456,2.5368,2.5544,2.5585,2.5589,2.5657,2.5659,2.5661,2.5708,2.5708,2.5708,2.5708,2.5817,2.5822,2.5826,2.5861,0,0,2.5841,2.5843,0,0,0,0,0,0,0,0,2.5451,2.5463,2.5577,2.5582,2.5587,2.5669,2.5636,2.5728,2.5709,2.5663,2.5708,2.5707,2.5769,2.5778,2.58,2.5866,2.5871,2.5841,2.5844,2.5846,2.5847,0,0,0,0,0,0,0,2.5444,2.5458,2.5589,2.5579,2.5585,2.5595,2.5608,2.5654,2.5716,2.5667,2.5671,2.5684,2.5772,2.5795,2.5802,2.5873,2.5841,2.5845,2.5848,2.585,2.5972,2.5972,0,0,0,0,0,0,2.5432,2.5452,2.5586,2.5593,2.5517,2.5599,2.5613,2.5643,2.5716,2.5727,2.5684,2.5686,2.5787,2.5797,2.5807,2.5852,2.5846,2.585,2.5853,2.5971,2.5972,2.5972,0,0,0,0,0,0,2.5428,2.5443,2.5581,2.5524,2.5542,2.5602,2.5635,2.5645,2.5668,2.5729,2.5739,2.5696,2.5787,2.58,2.5847,2.5856,2.5853,2.5857,2.5971,2.5972,2.5972,2.5942,0,0,0,0,0,0,2.5423,2.5442,2.5457,2.5524,2.5545,2.5621,2.5636,2.5648,2.5677,2.568,2.5743,2.5753,2.5788,2.584,2.5852,2.5862,2.586,2.597,2.5971,2.5972,2.5942,2.5941,2.5941,0,0,0,0,0,2.5416,2.5444,2.5458,2.5474,2.5566,2.5622,2.5634,2.5674,2.5678,2.5693,2.5731,2.5751,2.5853,2.5844,2.5858,2.587,2.597,2.5971,2.5972,2.5943,2.5942,2.5941,0,0,0,0,0,0,2.5376,2.5453,2.547,2.552,2.5564,2.563,2.565,2.5672,2.5715,2.5716,2.5763,2.5776,2.5819,2.5849,2.5838,2.5907,2.5913,2.5917,2.5886,2.5885,2.5884,2.5876,2.5864,0,0,0,0,0,2.5373,2.5414,2.5478,2.5516,2.5538,2.559,2.5616,2.5643,2.569,2.5709,2.5751,2.5794,2.5835,2.5862,2.5904,2.5946,2.596,2.5961,2.596,2.5959,2.5962,2.5985,2.5986,2.5975,2.5975,2.5975,0,0,2.5367,2.5414,2.5437,2.551,2.5547,2.5586,2.5606,2.5647,2.5676,2.5715,2.5762,2.5794,2.5845,2.589,2.5912,2.5916,2.5968,2.596,2.5959,2.5963,2.5986,2.5987,2.5988,2.5976,2.5976,2.5976,0,0,2.5377,2.5417,2.5453,2.549,2.5547,2.5581,2.5589,2.5651,2.5674,2.5723,2.5752,2.5786,2.5857,2.5892,2.5919,2.594,2.596,2.5951,2.5947,2.5969,2.597,2.5971,2.5977,2.5979,2.5954,2.5954,2.5954,0,2.5362,2.5425,2.5468,2.5508,2.5538,2.5575,2.561,2.5643,2.571,2.5729,2.5733,2.5822,2.5859,2.5912,2.5917,2.5938,2.5947,2.5945,2.5967,2.5968,2.597,2.5976,2.5979,2.5952,2.5953,2.5953,2.5953,0,2.5404,2.5446,2.5468,2.5532,2.5564,2.5601,2.5648,2.5675,2.5699,2.5732,2.5779,2.5825,2.5876,2.589,2.5913,2.5945,2.5946,2.5958,2.5965,2.5969,2.5976,2.5979,2.5951,2.5951,2.5951,2.5952,0,0,2.5393,2.548,2.5487,2.5516,2.558,2.5613,2.565,2.5701,2.5723,2.5767,2.5798,2.5856,2.5867,2.5898,2.5924,2.5944,2.5956,2.5953,2.5955,2.5952,2.5993,2.5984,2.5986,2.5969,2.5969,2.597,2.5988,0,2.5411,2.5483,2.5521,2.5575,2.5614,2.5649,2.5681,2.5722,2.5753,2.5789,2.5823,2.5863,2.5875,2.5893,2.5914,2.595,2.5964,2.5949,2.5997,2.5999,2.5984,2.599,2.5981,2.5997,2.5991,2.5992,2.5992,0,2.5443,2.5487,2.5545,2.5603,2.5621,2.565,2.5699,2.5733,2.578,2.5801,2.5834,2.586,2.5899,2.5902,2.5955,2.5943,2.5965,2.5985,2.5987,2.5993,2.5996,2.5996,2.6003,2.6005,2.5997,2.5997,2.5996,0,2.5428,2.5502,2.5546,2.557,2.5639,2.5658,2.5688,2.5734,2.5762,2.5804,2.5822,2.5866,2.5891,2.5924,2.5961,2.596,2.601,2.6016,2.6027,2.6026,2.6037,2.6036,2.6046,2.605,2.605,2.605,2.605,0,2.5445,2.5479,2.5541,2.5568,2.5606,2.5649,2.5685,2.5717,2.5758,2.579,2.5822,2.5851,2.5898,2.5932,2.5961,2.5999,2.601,2.6027,2.6034,2.6025,2.6022,2.604,2.604,2.6051,2.605,2.605,2.605,0,2.5436,2.5479,2.5529,2.559,2.5606,2.5632,2.5683,2.571,2.5742,2.5782,2.5794,2.5843,2.5885,2.5925,2.5981,2.6,2.6039,2.6048,2.6023,2.6028,2.6036,2.6034,2.6058,2.6063,2.6063,2.6063,2.6063,0,2.5444,2.5471,2.5535,2.556,2.5589,2.5628,2.5656,2.5698,2.5726,2.578,2.58,2.5844,2.5882,2.5947,2.5987,2.6029,2.604,2.6045,2.6046,2.6035,2.604,2.6038,2.604,2.6044,2.6044,2.6044,2.6044,0,2.5453,2.5473,2.5514,2.5561,2.5594,2.5633,2.5673,2.5691,2.574,2.5769,2.5813,2.5843,2.5899,2.5943,2.5989,2.6017,2.6038,2.6043,2.6048,2.6038,2.6023,2.6031,2.6021,2.6042,2.6043,2.6043,2.6043,2.6043,2.5453,2.5479,2.5527,2.5571,2.5605,2.5641,2.5669,2.5705,2.5743,2.5793,2.5815,2.5859,2.5903,2.5968,2.5995,2.6029,2.6034,2.6041,2.6042,2.6043,2.6041,2.6017,2.6037,2.6037,2.6037,2.6037,2.6037,0,2.5464,2.5497,2.5536,2.5592,2.5625,2.5643,2.5688,2.5714,2.5753,2.5793,2.5829,2.5879,2.592,2.5963,2.6006,2.6025,2.6035,2.6035,2.6034,2.604,2.6034,2.6026,2.6025,2.6025,2.6025,2.6025,2.6025,2.6025,2.5474,2.5517,2.5542,2.5602,2.5634,2.5679,2.5702,2.5735,2.5767,2.5821,2.5857,2.5884,2.5925,2.5971,2.6009,2.602,2.6035,2.6031,2.6045,2.6039,2.604,2.6041,2.6033,2.6034,2.6034,2.6048,2.6048,2.6048]}]]